Hourly Weather Bolshie Hutora

Today, 20 June, Sunday

Time Temperature Precipitation Wind Pressure Humidity
00:00 +19°C° 0 mm 2 mps 748 mmHg 90%
01:00 +19°C° 0 mm 2 mps 748 mmHg 92%
02:00 +18°C° 0 mm 2 mps 748 mmHg 94%
03:00 +19°C° 0 mm 2 mps 748 mmHg 94%
04:00 +19°C° 0 mm 2 mps 748 mmHg 93%
05:00 +19°C° 0 mm 2 mps 748 mmHg 93%
06:00 +21°C° 0 mm 2 mps 748 mmHg 88%
07:00 +23°C° 0 mm 2 mps 748 mmHg 82%
08:00 +24°C° 0 mm 2 mps 748 mmHg 77%
09:00 +25°C° 0 mm 3 mps 748 mmHg 72%
10:00 +26°C° 0 mm 3 mps 748 mmHg 68%
11:00 +27°C° 0 mm 3 mps 748 mmHg 64%
12:00 +28°C° 0 mm 3 mps 748 mmHg 61%
13:00 +28°C° 0 mm 3 mps 747 mmHg 59%
14:00 +29°C° 0 mm 3 mps 747 mmHg 56%
15:00 +29°C° 0 mm 2 mps 747 mmHg 59%
16:00 +28°C° 0 mm 2 mps 747 mmHg 62%
17:00 +28°C° 0 mm 2 mps 747 mmHg 66%
18:00 +26°C° 0 mm 2 mps 747 mmHg 70%
19:00 +25°C° 0 mm 2 mps 746 mmHg 75%
20:00 +23°C° 0 mm 2 mps 746 mmHg 79%
21:00 +21°C° 0 mm 2 mps 746 mmHg 80%
22:00 +20°C° 0 mm 2 mps 746 mmHg 81%
23:00 +20°C° 0 mm 2 mps 746 mmHg 82%

Tomorrow, 21 June, Monday

Time Temperature Precipitation Wind Pressure Humidity
00:00 +19°C° 0 mm 2 mps 746 mmHg 84%
01:00 +19°C° 0 mm 2 mps 746 mmHg 87%
02:00 +18°C° 0 mm 2 mps 746 mmHg 89%
03:00 +18°C° 0 mm 2 mps 746 mmHg 90%
04:00 +18°C° 0 mm 2 mps 746 mmHg 90%
05:00 +18°C° 0 mm 2 mps 746 mmHg 91%
06:00 +20°C° 0 mm 3 mps 746 mmHg 85%
07:00 +21°C° 0 mm 3 mps 746 mmHg 79%
08:00 +23°C° 0 mm 4 mps 746 mmHg 73%
09:00 +25°C° 0 mm 4 mps 746 mmHg 68%
10:00 +26°C° 0 mm 4 mps 746 mmHg 63%
11:00 +27°C° 0 mm 5 mps 746 mmHg 58%
12:00 +28°C° 0 mm 5 mps 746 mmHg 57%
13:00 +29°C° 0 mm 5 mps 745 mmHg 56%
14:00 +29°C° 0 mm 5 mps 745 mmHg 55%
15:00 +29°C° 0 mm 4 mps 745 mmHg 58%
16:00 +29°C° 0 mm 4 mps 745 mmHg 62%
17:00 +29°C° 0 mm 4 mps 745 mmHg 65%
18:00 +27°C° 0 mm 4 mps 745 mmHg 71%
19:00 +26°C° 0 mm 3 mps 745 mmHg 77%
20:00 +24°C° 0 mm 3 mps 745 mmHg 83%
21:00 +22°C° 0 mm 3 mps 745 mmHg 86%
22:00 +21°C° 0 mm 3 mps 745 mmHg 89%
23:00 +20°C° 0 mm 3 mps 745 mmHg 92%

Day after tomorrow, 22 June, Tuesday

Time Temperature Precipitation Wind Pressure Humidity
00:00 +20°C° 0 mm 3 mps 745 mmHg 93%
01:00 +19°C° 0 mm 3 mps 745 mmHg 95%
02:00 +19°C° 0 mm 3 mps 745 mmHg 96%
03:00 +19°C° 0 mm 3 mps 745 mmHg 95%
04:00 +19°C° 0 mm 3 mps 745 mmHg 94%
05:00 +19°C° 0 mm 3 mps 745 mmHg 94%
06:00 +21°C° 0 mm 3 mps 745 mmHg 87%
07:00 +23°C° 0 mm 4 mps 745 mmHg 80%
08:00 +26°C° 0 mm 4 mps 745 mmHg 73%
09:00 +27°C° 0 mm 4 mps 745 mmHg 67%
10:00 +28°C° 0 mm 5 mps 745 mmHg 62%
11:00 +30°C° 0 mm 5 mps 745 mmHg 56%
12:00 +30°C° 0 mm 5 mps 745 mmHg 56%
13:00 +32°C° 0 mm 5 mps 745 mmHg 55%
14:00 +32°C° 0 mm 5 mps 745 mmHg 55%
15:00 +32°C° 0 mm 4 mps 745 mmHg 58%
16:00 +32°C° 0 mm 4 mps 745 mmHg 61%
17:00 +30°C° 0 mm 4 mps 745 mmHg 64%
18:00 +28°C° 0 mm 3 mps 745 mmHg 70%
19:00 +27°C° 0 mm 3 mps 745 mmHg 76%
20:00 +25°C° 0 mm 3 mps 745 mmHg 82%
21:00 +24°C° 0 mm 3 mps 745 mmHg 85%
22:00 +22°C° 0 mm 3 mps 745 mmHg 89%
23:00 +21°C° 0 mm 3 mps 745 mmHg 92%

23 June, Wednesday

Time Temperature Precipitation Wind Pressure Humidity
00:00 +21°C° 0 mm 3 mps 745 mmHg 93%
01:00 +20°C° 0 mm 2 mps 745 mmHg 94%
02:00 +20°C° 0 mm 2 mps 745 mmHg 94%
03:00 +20°C° 0 mm 2 mps 745 mmHg 94%
04:00 +21°C° 0 mm 2 mps 746 mmHg 95%
05:00 +21°C° 0 mm 2 mps 746 mmHg 95%
06:00 +24°C° 0 mm 3 mps 746 mmHg 89%
07:00 +25°C° 0 mm 3 mps 746 mmHg 82%
08:00 +27°C° 0 mm 3 mps 746 mmHg 76%
09:00 +28°C° 0 mm 4 mps 746 mmHg 70%
10:00 +30°C° 0 mm 4 mps 746 mmHg 64%
11:00 +32°C° 0 mm 4 mps 746 mmHg 58%
12:00 +33°C° 0 mm 4 mps 746 mmHg 56%
13:00 +33°C° 0 mm 4 mps 746 mmHg 53%
14:00 +34°C° 0 mm 4 mps 746 mmHg 51%
15:00 +33°C° 0 mm 3 mps 746 mmHg 54%
16:00 +33°C° 0 mm 3 mps 746 mmHg 57%
17:00 +33°C° 0 mm 3 mps 746 mmHg 61%
18:00 +30°C° 0 mm 3 mps 746 mmHg 66%
19:00 +28°C° 0 mm 3 mps 746 mmHg 72%
20:00 +26°C° 0 mm 3 mps 746 mmHg 77%
21:00 +25°C° 0 mm 3 mps 746 mmHg 81%
22:00 +24°C° 0 mm 3 mps 746 mmHg 84%
23:00 +24°C° 0 mm 2 mps 746 mmHg 88%

24 June, Thursday

Time Temperature Precipitation Wind Pressure Humidity
00:00 +23°C° 0 mm 2 mps 746 mmHg 90%
01:00 +23°C° 0 mm 2 mps 746 mmHg 92%
02:00 +21°C° 0 mm 2 mps 746 mmHg 94%
03:00 +21°C° 0 mm 2 mps 746 mmHg 93%
04:00 +23°C° 0 mm 2 mps 746 mmHg 92%
05:00 +23°C° 0 mm 2 mps 746 mmHg 91%
06:00 +24°C° 0 mm 2 mps 746 mmHg 84%
07:00 +26°C° 0 mm 3 mps 746 mmHg 78%
08:00 +28°C° 0 mm 3 mps 747 mmHg 71%
09:00 +29°C° 0 mm 3 mps 747 mmHg 66%
10:00 +30°C° 0 mm 3 mps 747 mmHg 61%
11:00 +31°C° 0 mm 3 mps 747 mmHg 57%
12:00 +33°C° 0 mm 3 mps 747 mmHg 54%
13:00 +33°C° 0 mm 3 mps 747 mmHg 52%
14:00 +34°C° 0 mm 3 mps 747 mmHg 50%
15:00 +33°C° 0 mm 3 mps 746 mmHg 54%
16:00 +33°C° 0 mm 3 mps 746 mmHg 58%
17:00 +33°C° 0 mm 3 mps 746 mmHg 62%
18:00 +30°C° 0 mm 2 mps 746 mmHg 67%
19:00 +28°C° 0 mm 2 mps 746 mmHg 73%
20:00 +26°C° 0 mm 2 mps 745 mmHg 79%
21:00 +26°C° 0 mm 2 mps 745 mmHg 80%
22:00 +25°C° 0 mm 2 mps 746 mmHg 82%
23:00 +24°C° 0 mm 2 mps 746 mmHg 83%

25 June, Friday

Time Temperature Precipitation Wind Pressure Humidity
00:00 +23°C° 0 mm 2 mps 746 mmHg 83%
01:00 +23°C° 0 mm 2 mps 746 mmHg 84%
02:00 +21°C° 0 mm 2 mps 746 mmHg 84%
03:00 +21°C° 0 mm 2 mps 745 mmHg 84%
04:00 +21°C° 0 mm 2 mps 745 mmHg 84%
05:00 +21°C° 0 mm 2 mps 745 mmHg 84%
06:00 +24°C° 0 mm 3 mps 746 mmHg 80%
07:00 +26°C° 0 mm 3 mps 746 mmHg 76%
08:00 +28°C° 0 mm 3 mps 746 mmHg 73%
09:00 +29°C° 0 mm 3 mps 746 mmHg 68%
10:00 +30°C° 0 mm 3 mps 746 mmHg 63%
11:00 +32°C° 0 mm 4 mps 746 mmHg 58%
12:00 +33°C° 0 mm 4 mps 746 mmHg 55%
13:00 +33°C° 0 mm 3 mps 745 mmHg 53%
14:00 +34°C° 0 mm 3 mps 745 mmHg 51%
15:00 +33°C° 0 mm 3 mps 745 mmHg 55%
16:00 +33°C° 0 mm 3 mps 744 mmHg 58%
17:00 +33°C° 0 mm 3 mps 744 mmHg 62%
18:00 +30°C° 0.2 mm 3 mps 744 mmHg 68%
19:00 +28°C° 0.2 mm 3 mps 744 mmHg 75%
20:00 +26°C° 0.2 mm 4 mps 744 mmHg 81%
21:00 +23°C° 0.8 mm 4 mps 744 mmHg 86%
22:00 +21°C° 0.8 mm 3 mps 744 mmHg 90%
23:00 +19°C° 0.8 mm 3 mps 745 mmHg 95%
Show more